SCP
0 0 0 0 -0 0 0 0 0 0 0 0 0 0 0 0 0 0 0 0 0 0 0 0 0 0 0 0 0 0 0 0 0 0 0 0 0 0 0 0 0 0 0 0
0 0 0 0 0 0 0 0 0 0 0 -0 0 0 0 0 0 -0 -0 -0 -0 0 0 0 0 0 0 0 0 0 0 0 0 0 0 0 0 0 0 0 0 0 0 0
0 0 0 0 0 0 0 0 0 0 0 0 0 0 0 0 0 -0 -0 -0 -0 0 0 0 0 0 0 0 0 0 0 0 0 0 0 0 0 0 0 0 0 0 0 0
0 0 0 0 0 0 0 0 0 0 0 0 0 0 -0 -0 -0 -0 0 0 0 0 0 0 0 0 0 0 0 0 0 0 0 0 0 0 0 0 0 0 0 0 0 0
0 0 0 0 0 0 0 0 0 0 0 0 0 0 0 0 0 0 0 0 0 0 0 -0 -0 -0 0 0 0 0 0 0 0 0 0 0 0 0 0 0 0 0 0 0
0 0 0 0 0 0 0 0 0 0 0 0 0 0 0 0 0 0 -0 -0 -0 -0 -0 -0 -0 -0 -0 0 0 0 0 0 0 0 0 0 0 0 0 0 0 0 0 0
0 0 0 0 0 0 0 0 0 0 0 0 0 0 0 0 0 0 -0 -0 -0 -0 -0 -0 -0 -0 -0 -0 0 0 0 0 0 0 0 0 0 0 0 0 0 0 0 0
0 0 0 0 0 0 0 0 0 0 0 0 0 0 -0 -0 -0 -0 -0 -0 -0 -0 -0 0 0 0 0 0 0 0 0 0 0 0 0 0 0 0 0 0 0 0 0 0
0 0 0 0 0 0 0 0 0 0 0 0 0 -0 -0 -0 -0 -0 -0 -0 -0 -0 -0 0 0 0 0 0 0 0 0 0 0 0 0 0 0 0 0 0 0 0 0 0
0 0 0 0 0 0 0 0 0 0 0 0 -0 -0 -0 -0 -0 -0 -0 -0 -0 -0 -0 0 0 0 0 0 0 0 0 0 0 0 0 0 0 0 0 0 0 0 0 0
0 0 0 0 0 0 0 0 0 0 0 0 0 -0 -0 -0 -0 -0 -0 -0 -0 -0 -0 0 0 0 -0 -0 -0 0 0 0 0 0 0 0 0 0 0 0 0 0 0 0
0 0 0 0 0 0 0 0 0 0 0 0 0 -0 -0 -0 -0 -0 -0 -0 -0 -0 -0 -0 0 0 0 -0 -0 -0 0 0 0 0 0 0 0 0 0 0 0 0 0 0
0 0 0 0 0 0 0 0 0 0 0 0 0 -0 -0 -0 -0 -0 -0 -0 -0 -0 -0 -0 0 0 0 0 -0 0 0 0 0 0 0 0 0 0 0 0 0 0 0 0
0 0 0 0 0 0 0 0 0 0 0 0 0 0 0 -0 -0 -0 -0 -0 -0 -0 -0 -0 0 -0 0 0 0 0 0 0 0 0 0 0 0 0 0 0 0 0 0 0
0 0 0 0 0 0 0 0 0 0 0 0 0 0 0 0 0 0 0 -0 -0 -0 -0 -0 -0 -0 0 0 0 0 0 0 0 0 0 0 0 0 0 0 0 0 0 0
0 0 0 0 0 0 0 0 0 0 0 0 0 0 0 0 0 0 -0 -0 -0 -0 -0 -0 -0 -0 0 0 0 0 0 0 0 0 0 0 0 0 0 0 0 0 0 0
0 0 0 0 0 0 0 0 0 0 0 0 0 0 0 0 0 0 0 0 0 0 -0 -0 0 0 0 0 0 0 0 0 0 0 0 0 0 0 0 0 0 0 0 0
0 0 0 0 0 0 0 0 0 0 0 0 0 0 0 0 0 0 0 0 0 0 0 0 0 0 0 0 0 0 0 0 0 0 0 0 0 0 0 0 0 0 0 0
-0 0 0 0 0 0 0 0 0 0 0 0 0 0 0 0 0 0 0 0 0 0 0 0 0 0 0 0 0 0 0 0 0 0 0 0 0 0 0 0 0 0 0 0
-0 -0 0 -0 -0 0 0 0 0 0 0 0 0 0 0 0 0 0 0 0 0 0 0 0 0 0 0 0 0 0 0 0 0 0 0 0 0 0 0 0 0 0 0 0
-0 -0 -0 -0 -0 -0 -0 0 0 0 0 0 0 0 0 0 -0 0 0 0 0 0 0 0 0 0 0 0 0 0 0 0 0 0 0 0 0 0 0 0 0 0 0 0
-0 -0 0 0 -0 -0 -0 -0 -0 -0 -0 0 -0 -0 -0 -0 0 -0 -0 -0 0 0 -0 0 0 0 0 0 0 0 0 0 0 0 0 0 0 0 0 0 0 0 0 0
0 0 0 0 0 0 -0 -0 0 0 0 -0 -0 -0 -0 -0 -0 -0 0 0 -0 -0 -0 -0 -0 0 0 0 0 0 0 0 0 0 0 0 0 0 0 0 0 0 0 0
0 0 0 0 0 0 0 -0 -0 -0 -0 -0 -0 -0 -0 -0 -0 -0 -0 -0 -0 -0 -0 -0 -0 0 0 -0 -0 -0 0 0 0 0 0 0 0 0 0 0 0 0 0 0
0 0 0 0 0 0 0 0 -0 -0 -0 -0 -0 -0 -0 -0 -0 -0 -0 -0 -0 -0 -0 -0 0 0 -0 -0 -0 0 0 0 0 0 0 0 0 0 0 0 0 0 0 0
0 0 0 0 0 0 0 -0 -0 -0 -0 -0 -0 -0 -0 -0 -0 -0 -0 -0 -0 -0 -0 -0 -0 -0 -0 -0 0 0 0 0 0 0 0 0 0 0 0 0 0 0 0 0
0 0 0 0 0 0 0 0 0 0 0 -0 -0 -0 -0 -0 -0 -0 -0 -0 -0 -0 -0 -0 -0 -0 -0 -0 0 0 0 0 0 0 0 0 0 0 0 0 0 0 0 0
Wind_Speed_500mb
34 34 12 16 37 39 42 48 40 45 51 66 24 23 29 39 42 42 46 48 64 74 83 81 75 70 70 59 63 59 57 60 59 57 60 62 64 67 67 68 67 67 68 64
15 25 17 18 13 22 35 41 36 48 51 75 41 50 42 27 43 47 47 70 77 74 73 73 74 75 76 66 56 64 68 63 62 61 59 60 61 62 63 65 68 68 68 68
7 13 15 18 45 45 39 36 37 36 53 49 36 36 44 54 59 60 69 75 69 66 65 67 68 70 72 71 64 57 66 69 62 58 56 56 56 59 60 61 61 61 60 58
4 6 19 19 21 33 46 50 46 45 52 60 52 69 58 62 56 63 67 63 57 55 68 75 73 71 73 70 69 65 66 70 65 59 55 53 53 54 55 56 56 57 58 58
9 17 20 29 18 16 22 37 35 40 45 52 60 62 46 37 29 35 40 47 57 69 83 88 77 73 72 77 71 71 70 67 69 68 65 59 58 59 59 59 61 61 60 61
8 10 13 18 16 27 17 22 32 41 40 39 43 25 17 43 57 66 61 63 75 81 88 94 88 75 69 81 84 83 74 68 69 79 78 73 68 66 66 64 64 65 66 65
15 8 12 20 13 4 12 21 24 29 30 29 17 29 42 47 56 56 69 77 88 96 98 100 90 84 89 88 89 83 78 71 71 80 87 83 78 75 71 70 70 70 67 64
10 7 21 22 9 19 13 29 27 31 34 38 39 46 49 43 46 54 68 90 94 94 95 92 96 87 87 97 89 78 76 82 79 77 88 93 89 84 78 75 73 72 69 68
17 13 11 4 16 17 26 20 32 38 48 50 54 56 60 67 62 63 67 96 100 101 104 99 96 93 86 88 87 80 73 71 81 86 85 97 97 90 84 81 80 78 76 74
2 22 32 3 9 22 32 35 36 37 46 52 61 67 71 78 89 93 92 78 91 104 107 109 98 99 97 88 84 81 78 71 78 84 88 96 98 95 91 91 89 86 82 78
15 29 39 20 24 39 52 47 46 52 54 58 63 72 76 95 102 92 86 95 90 99 105 107 99 100 98 94 84 84 79 78 75 79 90 97 100 99 97 97 96 91 87 82
12 12 15 23 39 68 51 53 58 62 78 73 63 76 81 97 93 106 110 103 97 104 98 104 99 95 95 92 86 82 78 81 78 77 82 97 100 102 98 96 93 87 80 77
17 46 41 54 46 17 54 67 62 66 63 75 85 71 74 99 103 105 104 97 101 100 102 102 99 95 88 88 84 82 78 79 81 78 80 91 102 105 102 95 87 80 75 70
32 39 18 19 38 65 58 66 63 66 63 59 66 80 84 86 89 92 97 98 98 98 95 92 92 91 82 77 76 74 70 73 78 81 79 86 99 100 100 98 93 82 73 67
16 34 41 47 41 51 55 59 68 63 60 71 70 72 73 82 89 85 80 82 85 83 80 78 80 79 73 68 67 68 65 68 76 75 75 81 89 92 94 88 85 81 72 65
38 44 35 39 43 47 50 59 63 67 67 66 66 65 69 68 66 63 62 62 64 67 67 70 70 70 65 61 57 54 58 64 73 72 71 73 82 86 88 87 86 79 77 76
35 30 50 53 54 55 55 55 55 56 58 56 57 56 55 54 49 47 46 45 43 46 53 57 61 60 57 51 45 44 48 58 63 64 66 73 80 84 84 84 81 81 81 75
24 28 31 34 45 50 52 47 46 47 49 49 46 44 43 43 44 47 46 41 38 36 46 52 55 56 52 46 40 40 41 44 48 55 62 68 73 76 78 80 83 82 70 66
16 20 24 28 31 35 37 42 42 41 41 39 39 39 39 38 39 41 43 48 53 60 65 62 57 51 42 39 33 27 26 28 37 43 49 56 58 56 58 60 61 60 59 60
10 14 19 21 22 28 34 35 34 35 38 38 35 35 39 44 45 42 46 55 59 57 55 57 51 50 52 49 39 24 11 4 9 16 23 30 36 38 41 44 46 48 47 46
12 15 16 20 24 25 27 30 32 38 38 36 37 40 42 40 42 51 54 59 58 55 53 53 56 58 53 48 45 43 39 35 32 29 26 26 25 27 30 31 31 32 33 34
12 14 17 20 20 22 26 28 29 34 38 39 40 40 42 47 48 49 54 55 55 55 55 56 55 50 47 42 41 40 39 37 35 30 27 23 18 15 15 16 17 19 21 24
11 13 15 15 17 20 23 25 28 32 36 37 40 42 45 45 49 53 55 55 53 54 53 54 53 51 47 42 39 37 35 31 27 22 16 11 6 4 8 14 20 27 33 37
7 10 12 14 16 17 19 25 28 31 33 34 37 43 46 45 39 43 44 46 48 49 50 50 50 50 48 46 44 41 38 35 33 30 27 25 22 21 22 24 27 30 33 36
6 9 11 13 16 20 24 26 28 29 31 33 34 37 38 42 48 51 50 49 48 48 49 49 49 50 49 47 45 43 42 41 39 37 36 35 33 32 33 33 35 37 38 40
5 8 9 12 17 21 25 30 33 36 38 38 39 43 44 46 46 46 45 45 47 48 50 52 53 52 50 49 48 47 45 43 41 40 40 41 42 43 43 44 44 44 45 45
7 9 11 14 19 23 28 31 33 34 36 39 39 42 44 45 46 48 50 52 54 55 55 54 54 53 51 51 50 48 47 46 45 45 45 45 45 46 48 49 50 50 51 51
Wind_Direction_500mb
246 265 271 278 224 229 233 234 240 253 258 267 272 297 329 317 311 313 310 311 312 309 316 319 317 322 319 315 308 316 307 289 280 270 259 251 245 242 241 242 244 243 245 247
257 260 239 240 232 235 242 251 266 259 272 271 305 297 285 285 294 297 301 295 295 297 304 309 314 316 316 322 310 299 303 297 284 276 265 255 250 246 243 241 240 241 241 242
238 192 243 258 238 239 243 239 233 246 253 282 283 279 286 298 295 289 286 287 297 302 311 313 314 313 309 316 315 302 295 292 283 276 266 255 245 241 239 239 239 237 237 238
209 109 226 238 257 235 241 246 249 258 265 272 277 278 278 281 287 284 286 296 306 315 316 315 313 309 305 311 309 305 298 288 277 270 259 250 244 239 236 234 235 237 238 238
212 225 284 301 245 223 223 254 250 253 267 282 279 285 288 300 345 345 338 331 325 319 316 317 315 316 303 303 306 300 297 295 278 267 256 244 239 238 236 236 238 238 238 236
168 231 231 271 5 205 217 266 256 252 262 273 288 287 310 335 327 326 320 318 322 325 324 323 317 318 306 302 300 299 299 293 288 268 257 247 242 239 239 238 238 236 234 232
216 251 268 257 242 141 158 270 20 359 356 342 322 322 325 324 315 312 312 317 320 322 319 317 311 311 314 313 301 301 299 292 280 270 257 250 246 241 239 238 235 233 232 231
206 240 262 198 176 221 340 15 21 348 345 334 319 314 314 315 310 313 316 318 319 319 317 314 316 311 307 307 317 308 294 291 280 272 257 248 245 242 239 235 233 231 228 226
202 214 243 182 58 49 22 21 353 338 326 325 319 317 315 314 315 313 315 317 316 315 314 313 317 316 307 307 311 308 299 290 281 272 259 247 241 239 235 232 230 228 226 224
110 253 263 316 38 16 2 355 337 329 322 320 315 314 311 309 311 312 316 314 312 312 310 307 314 312 308 305 307 307 299 289 282 274 259 245 239 236 233 231 228 227 225 224
254 274 326 77 33 354 333 329 326 318 317 315 312 308 308 306 310 312 309 311 312 310 309 305 308 305 304 302 303 302 298 288 279 274 262 243 237 237 233 233 233 231 228 226
256 10 320 294 317 321 325 327 323 321 314 311 310 306 308 305 306 307 309 310 309 310 308 305 304 301 299 300 300 296 292 284 275 267 261 246 236 231 230 232 233 231 229 228
291 310 303 294 306 306 318 318 315 311 308 307 307 306 303 304 306 305 306 308 307 307 305 305 304 301 299 297 295 289 285 280 273 262 255 246 237 234 228 225 226 230 226 219
309 318 322 339 314 312 314 312 312 308 310 307 306 308 309 310 309 308 307 308 307 307 308 306 302 300 301 297 292 286 281 276 266 261 255 246 237 234 230 224 215 212 211 209
312 312 297 303 309 311 315 317 316 317 317 316 317 317 318 316 313 313 313 309 309 310 309 305 302 300 297 294 287 284 280 272 263 257 251 243 235 228 227 223 215 205 197 195
310 311 315 319 322 324 327 331 326 324 327 327 327 329 324 321 320 323 323 323 323 323 325 320 316 312 306 297 290 285 275 269 261 252 243 237 229 224 219 212 208 201 193 187
315 327 327 332 335 336 337 335 328 329 332 336 337 335 334 337 341 341 346 348 341 342 341 337 331 327 321 311 297 272 264 260 248 248 241 228 223 219 216 210 203 196 195 192
313 318 319 321 329 332 336 337 342 345 345 342 343 347 348 352 358 3 3 357 2 5 4 2 355 349 340 325 307 284 271 259 246 234 227 217 213 212 206 201 198 194 186 186
331 338 342 343 339 336 342 350 356 356 356 358 4 10 13 12 9 14 18 21 22 21 19 16 11 8 1 359 342 319 288 267 246 235 225 218 211 205 200 198 193 188 185 184
11 7 3 359 353 353 358 2 4 10 11 13 13 17 22 26 30 27 31 33 30 22 19 21 22 27 30 30 25 22 27 87 193 192 191 189 184 178 176 177 178 181 184 185
41 36 24 17 14 7 4 5 12 17 19 17 18 24 28 22 21 25 28 31 27 26 24 23 23 26 32 37 41 46 54 65 75 86 102 114 128 143 155 164 170 175 180 183
44 44 41 35 19 16 16 15 15 18 19 20 21 19 20 25 29 32 30 23 21 20 20 22 25 21 21 26 37 43 50 55 58 61 66 76 86 103 129 151 168 181 190 199
42 31 31 29 18 17 16 18 19 19 15 13 13 17 22 19 18 16 19 20 17 15 13 16 17 16 15 18 20 19 21 25 31 38 47 62 84 156 208 220 227 232 236 239
14 12 13 18 17 14 13 16 13 10 4 2 3 5 6 7 15 12 11 8 7 6 6 7 8 7 5 5 6 5 3 1 359 355 349 341 330 315 301 290 283 276 272 271
9 9 5 3 1 1 0 359 358 358 357 359 2 6 6 5 5 4 4 2 1 1 1 0 359 359 359 358 357 355 352 347 342 338 335 330 323 317 310 303 296 291 286 282
338 341 342 346 347 346 350 351 353 351 353 359 3 4 4 4 4 3 3 2 2 1 0 359 359 358 357 355 352 349 345 341 336 332 327 321 318 313 308 304 300 297 294 290
299 314 320 327 334 338 342 344 346 350 353 356 360 0 1 1 360 358 357 356 356 355 354 353 353 352 350 349 347 345 342 338 334 330 326 320 316 310 305 302 299 296 294 292
Wind_Speed_850mb
34 34 12 16 37 39 42 48 40 45 51 66 24 23 29 39 42 42 46 48 64 74 83 81 75 70 70 59 63 59 57 60 59 57 60 62 64 67 67 68 67 67 68 64
15 25 17 18 13 22 35 41 36 48 51 75 41 50 42 27 43 47 47 70 77 74 73 73 74 75 76 66 56 64 68 63 62 61 59 60 61 62 63 65 68 68 68 68
7 13 15 18 45 45 39 36 37 36 53 49 36 36 44 54 59 60 69 75 69 66 65 67 68 70 72 71 64 57 66 69 62 58 56 56 56 59 60 61 61 61 60 58
4 6 19 19 21 33 46 50 46 45 52 60 52 69 58 62 56 63 67 63 57 55 68 75 73 71 73 70 69 65 66 70 65 59 55 53 53 54 55 56 56 57 58 58
9 17 20 29 18 16 22 37 35 40 45 52 60 62 46 37 29 35 40 47 57 69 83 88 77 73 72 77 71 71 70 67 69 68 65 59 58 59 59 59 61 61 60 61
8 10 13 18 16 27 17 22 32 41 40 39 43 25 17 43 57 66 61 63 75 81 88 94 88 75 69 81 84 83 74 68 69 79 78 73 68 66 66 64 64 65 66 65
15 8 12 20 13 4 12 21 24 29 30 29 17 29 42 47 56 56 69 77 88 96 98 100 90 84 89 88 89 83 78 71 71 80 87 83 78 75 71 70 70 70 67 64
10 7 21 22 9 19 13 29 27 31 34 38 39 46 49 43 46 54 68 90 94 94 95 92 96 87 87 97 89 78 76 82 79 77 88 93 89 84 78 75 73 72 69 68
17 13 11 4 16 17 26 20 32 38 48 50 54 56 60 67 62 63 67 96 100 101 104 99 96 93 86 88 87 80 73 71 81 86 85 97 97 90 84 81 80 78 76 74
2 22 32 3 9 22 32 35 36 37 46 52 61 67 71 78 89 93 92 78 91 104 107 109 98 99 97 88 84 81 78 71 78 84 88 96 98 95 91 91 89 86 82 78
15 29 39 20 24 39 52 47 46 52 54 58 63 72 76 95 102 92 86 95 90 99 105 107 99 100 98 94 84 84 79 78 75 79 90 97 100 99 97 97 96 91 87 82
12 12 15 23 39 68 51 53 58 62 78 73 63 76 81 97 93 106 110 103 97 104 98 104 99 95 95 92 86 82 78 81 78 77 82 97 100 102 98 96 93 87 80 77
17 46 41 54 46 17 54 67 62 66 63 75 85 71 74 99 103 105 104 97 101 100 102 102 99 95 88 88 84 82 78 79 81 78 80 91 102 105 102 95 87 80 75 70
32 39 18 19 38 65 58 66 63 66 63 59 66 80 84 86 89 92 97 98 98 98 95 92 92 91 82 77 76 74 70 73 78 81 79 86 99 100 100 98 93 82 73 67
16 34 41 47 41 51 55 59 68 63 60 71 70 72 73 82 89 85 80 82 85 83 80 78 80 79 73 68 67 68 65 68 76 75 75 81 89 92 94 88 85 81 72 65
38 44 35 39 43 47 50 59 63 67 67 66 66 65 69 68 66 63 62 62 64 67 67 70 70 70 65 61 57 54 58 64 73 72 71 73 82 86 88 87 86 79 77 76
35 30 50 53 54 55 55 55 55 56 58 56 57 56 55 54 49 47 46 45 43 46 53 57 61 60 57 51 45 44 48 58 63 64 66 73 80 84 84 84 81 81 81 75
24 28 31 34 45 50 52 47 46 47 49 49 46 44 43 43 44 47 46 41 38 36 46 52 55 56 52 46 40 40 41 44 48 55 62 68 73 76 78 80 83 82 70 66
16 20 24 28 31 35 37 42 42 41 41 39 39 39 39 38 39 41 43 48 53 60 65 62 57 51 42 39 33 27 26 28 37 43 49 56 58 56 58 60 61 60 59 60
10 14 19 21 22 28 34 35 34 35 38 38 35 35 39 44 45 42 46 55 59 57 55 57 51 50 52 49 39 24 11 4 9 16 23 30 36 38 41 44 46 48 47 46
12 15 16 20 24 25 27 30 32 38 38 36 37 40 42 40 42 51 54 59 58 55 53 53 56 58 53 48 45 43 39 35 32 29 26 26 25 27 30 31 31 32 33 34
12 14 17 20 20 22 26 28 29 34 38 39 40 40 42 47 48 49 54 55 55 55 55 56 55 50 47 42 41 40 39 37 35 30 27 23 18 15 15 16 17 19 21 24
11 13 15 15 17 20 23 25 28 32 36 37 40 42 45 45 49 53 55 55 53 54 53 54 53 51 47 42 39 37 35 31 27 22 16 11 6 4 8 14 20 27 33 37
7 10 12 14 16 17 19 25 28 31 33 34 37 43 46 45 39 43 44 46 48 49 50 50 50 50 48 46 44 41 38 35 33 30 27 25 22 21 22 24 27 30 33 36
6 9 11 13 16 20 24 26 28 29 31 33 34 37 38 42 48 51 50 49 48 48 49 49 49 50 49 47 45 43 42 41 39 37 36 35 33 32 33 33 35 37 38 40
5 8 9 12 17 21 25 30 33 36 38 38 39 43 44 46 46 46 45 45 47 48 50 52 53 52 50 49 48 47 45 43 41 40 40 41 42 43 43 44 44 44 45 45
7 9 11 14 19 23 28 31 33 34 36 39 39 42 44 45 46 48 50 52 54 55 55 54 54 53 51 51 50 48 47 46 45 45 45 45 45 46 48 49 50 50 51 51
Wind_Direction_850mb
246 265 271 278 224 229 233 234 240 253 258 267 272 297 329 317 311 313 310 311 312 309 316 319 317 322 319 315 308 316 307 289 280 270 259 251 245 242 241 242 244 243 245 247
257 260 239 240 232 235 242 251 266 259 272 271 305 297 285 285 294 297 301 295 295 297 304 309 314 316 316 322 310 299 303 297 284 276 265 255 250 246 243 241 240 241 241 242
238 192 243 258 238 239 243 239 233 246 253 282 283 279 286 298 295 289 286 287 297 302 311 313 314 313 309 316 315 302 295 292 283 276 266 255 245 241 239 239 239 237 237 238
209 109 226 238 257 235 241 246 249 258 265 272 277 278 278 281 287 284 286 296 306 315 316 315 313 309 305 311 309 305 298 288 277 270 259 250 244 239 236 234 235 237 238 238
212 225 284 301 245 223 223 254 250 253 267 282 279 285 288 300 345 345 338 331 325 319 316 317 315 316 303 303 306 300 297 295 278 267 256 244 239 238 236 236 238 238 238 236
168 231 231 271 5 205 217 266 256 252 262 273 288 287 310 335 327 326 320 318 322 325 324 323 317 318 306 302 300 299 299 293 288 268 257 247 242 239 239 238 238 236 234 232
216 251 268 257 242 141 158 270 20 359 356 342 322 322 325 324 315 312 312 317 320 322 319 317 311 311 314 313 301 301 299 292 280 270 257 250 246 241 239 238 235 233 232 231
206 240 262 198 176 221 340 15 21 348 345 334 319 314 314 315 310 313 316 318 319 319 317 314 316 311 307 307 317 308 294 291 280 272 257 248 245 242 239 235 233 231 228 226
202 214 243 182 58 49 22 21 353 338 326 325 319 317 315 314 315 313 315 317 316 315 314 313 317 316 307 307 311 308 299 290 281 272 259 247 241 239 235 232 230 228 226 224
110 253 263 316 38 16 2 355 337 329 322 320 315 314 311 309 311 312 316 314 312 312 310 307 314 312 308 305 307 307 299 289 282 274 259 245 239 236 233 231 228 227 225 224
254 274 326 77 33 354 333 329 326 318 317 315 312 308 308 306 310 312 309 311 312 310 309 305 308 305 304 302 303 302 298 288 279 274 262 243 237 237 233 233 233 231 228 226
256 10 320 294 317 321 325 327 323 321 314 311 310 306 308 305 306 307 309 310 309 310 308 305 304 301 299 300 300 296 292 284 275 267 261 246 236 231 230 232 233 231 229 228
291 310 303 294 306 306 318 318 315 311 308 307 307 306 303 304 306 305 306 308 307 307 305 305 304 301 299 297 295 289 285 280 273 262 255 246 237 234 228 225 226 230 226 219
309 318 322 339 314 312 314 312 312 308 310 307 306 308 309 310 309 308 307 308 307 307 308 306 302 300 301 297 292 286 281 276 266 261 255 246 237 234 230 224 215 212 211 209
312 312 297 303 309 311 315 317 316 317 317 316 317 317 318 316 313 313 313 309 309 310 309 305 302 300 297 294 287 284 280 272 263 257 251 243 235 228 227 223 215 205 197 195
310 311 315 319 322 324 327 331 326 324 327 327 327 329 324 321 320 323 323 323 323 323 325 320 316 312 306 297 290 285 275 269 261 252 243 237 229 224 219 212 208 201 193 187
315 327 327 332 335 336 337 335 328 329 332 336 337 335 334 337 341 341 346 348 341 342 341 337 331 327 321 311 297 272 264 260 248 248 241 228 223 219 216 210 203 196 195 192
313 318 319 321 329 332 336 337 342 345 345 342 343 347 348 352 358 3 3 357 2 5 4 2 355 349 340 325 307 284 271 259 246 234 227 217 213 212 206 201 198 194 186 186
331 338 342 343 339 336 342 350 356 356 356 358 4 10 13 12 9 14 18 21 22 21 19 16 11 8 1 359 342 319 288 267 246 235 225 218 211 205 200 198 193 188 185 184
11 7 3 359 353 353 358 2 4 10 11 13 13 17 22 26 30 27 31 33 30 22 19 21 22 27 30 30 25 22 27 87 193 192 191 189 184 178 176 177 178 181 184 185
41 36 24 17 14 7 4 5 12 17 19 17 18 24 28 22 21 25 28 31 27 26 24 23 23 26 32 37 41 46 54 65 75 86 102 114 128 143 155 164 170 175 180 183
44 44 41 35 19 16 16 15 15 18 19 20 21 19 20 25 29 32 30 23 21 20 20 22 25 21 21 26 37 43 50 55 58 61 66 76 86 103 129 151 168 181 190 199
42 31 31 29 18 17 16 18 19 19 15 13 13 17 22 19 18 16 19 20 17 15 13 16 17 16 15 18 20 19 21 25 31 38 47 62 84 156 208 220 227 232 236 239
14 12 13 18 17 14 13 16 13 10 4 2 3 5 6 7 15 12 11 8 7 6 6 7 8 7 5 5 6 5 3 1 359 355 349 341 330 315 301 290 283 276 272 271
9 9 5 3 1 1 0 359 358 358 357 359 2 6 6 5 5 4 4 2 1 1 1 0 359 359 359 358 357 355 352 347 342 338 335 330 323 317 310 303 296 291 286 282
338 341 342 346 347 346 350 351 353 351 353 359 3 4 4 4 4 3 3 2 2 1 0 359 359 358 357 355 352 349 345 341 336 332 327 321 318 313 308 304 300 297 294 290
299 314 320 327 334 338 342 344 346 350 353 356 360 0 1 1 360 358 357 356 356 355 354 353 353 352 350 349 347 345 342 338 334 330 326 320 316 310 305 302 299 296 294 292